Location: Beulah
(33.1426°N, 83.0557°W)
Time: 03:09:56
(UTC+00:00)

Envisat - Pass Details

Date: 30 November 2021
Orbit: 764 x 766 km, 98.2° (Epoch: 23 January)

Event Time Altitude Azimuth Distance (km) Brightness Sun altitude
Rises 09:45:07 0° 25° (NNE) 3,236 6.4 -31.2°
Reaches altitude 10° 09:47:41 10° 35° (NE) 2,305 5.8 -30.7°
Maximum altitude 09:52:10 31° 97° (E) 1,322 4.7 -29.7°
Drops below altitude 10° 09:56:36 10° 159° (SSE) 2,292 5.8 -28.8°
Sets 09:59:08 0° 169° (S) 3,213 6.5 -28.3°
